Location: Aulagny
(45.1643°N, 4.3096°E)
Time: 10:42:51
(UTC+00:00)

Cosmos 1076 Rocket - Pass Details

Date: 21 October 2019
Orbit: 589 x 613 km, 82.5° (Epoch: 17 November)

Event Time Altitude Azimuth Distance (km) Brightness Sun altitude
Rises 18:54:30 0° 345° (NNW) 2,887 7.3 -22.9°
Reaches altitude 10° 18:56:47 10° 340° (NNW) 1,974 6.5 -23.3°
Maximum altitude 19:00:59 48° 267° (W) 803 4.5 -24.1°
Drops below altitude 10° 19:05:07 10° 193° (SSW) 1,946 6.1 -24.8°
Sets 19:07:22 0° 188° (S) 2,840 6.9 -25.2°
Enters shadow 19:07:25 - 188° (S) 2,863 7.0 -25.2°
